This is the latest recevied weather packets stored in our database for station/object KA5ZCI. If no packets are shown the sender has not sent any weather packets the latest 10 day(s).
| Time | Temp. | Humidity | Pressure | Rain* | Wind** | Luminosity | Snow |
|---|---|---|---|---|---|---|---|
| 1777716004 | 13.33° C | 95% | 1015 hPa | 0 mm | - | 0 W/m² | - |
| 1777712104 | 13.33° C | 96% | 1014.8 hPa | 0.51 mm | - | 0 W/m² | - |
| 1777710004 | 12.78° C | 96% | 1013.5 hPa | 1.27 mm | - | 0 W/m² | - |
| 1777709404 | 12.78° C | 96% | 1014.2 hPa | 1.78 mm | - | 0 W/m² | - |
| 1777708804 | 12.78° C | 96% | 1014.8 hPa | 2.03 mm | - | 0 W/m² | - |
| 1777706404 | 13.33° C | 96% | 1014.8 hPa | 0.76 mm | - | 0 W/m² | - |
| 1777705204 | 12.78° C | 96% | 1014.7 hPa | 0.51 mm | - | 0 W/m² | - |
| 1777704904 | 12.78° C | 96% | 1014.5 hPa | 1.02 mm | - | 0 W/m² | - |
| 1777703104 | 13.33° C | 96% | 1014.5 hPa | 1.02 mm | - | 0 W/m² | - |
| 1777702804 | 13.33° C | 96% | 1014.6 hPa | 1.02 mm | - | 0 W/m² | - |
| 1777702504 | 13.89° C | 96% | 1014.8 hPa | 1.02 mm | - | 0 W/m² | - |
| 1777700404 | 14.44° C | 96% | 1014.6 hPa | 0 mm | - | 0 W/m² | - |
| 1777699204 | 15° C | 96% | 1014.8 hPa | 0 mm | - | 0 W/m² | - |
| 1777698604 | 15° C | 96% | 1014.1 hPa | 0.25 mm | - | 0 W/m² | - |
| 1777697404 | 15° C | 96% | 1014.1 hPa | 0.51 mm | - | 0 W/m² | - |
| 1777695903 | 15.56° C | 96% | 1013.7 hPa | 0.76 mm | - | 0 W/m² | - |
| 1777695003 | 15.56° C | 96% | 1013.6 hPa | 3.3 mm | - | 0 W/m² | - |
| 1777694104 | 15.56° C | 96% | 1013.7 hPa | 8.13 mm | - | 0 W/m² | - |
| 1777692304 | 15.56° C | 96% | 1014.2 hPa | 7.87 mm | - | 0 W/m² | - |
| 1777689903 | 16.11° C | 96% | 1013.8 hPa | 29.97 mm | - | 0 W/m² | - |
| 1777687504 | 15.56° C | 96% | 1013.2 hPa | 4.83 mm | - | 0 W/m² | - |
| 1777683303 | 15.56° C | 96% | 1012.9 hPa | 0 mm | - | 0 W/m² | - |
| 1777682404 | 15.56° C | 96% | 1014 hPa | 0 mm | - | 0 W/m² | - |
| 1777680307 | 15.56° C | 96% | 1012.8 hPa | 0 mm | - | 0 W/m² | - |
| 1777678804 | 15.56° C | 96% | 1013.1 hPa | 0.51 mm | - | 0 W/m² | - |
* Rain latest hour (hover to see other rain measurements)
** Current wind speed in m/s (hover to see current wind gust speed)